Orbital Elements at Epoch 2459000.5 (2020-May-31.0) TDB
Reference: JPL 20 (heliocentric ecliptic J2000)
Element | Value | Uncertainty (1-sigma) | Units |
e | .1089342391890975 | 4.5914e-08 | |
a | 2.194500743746571 | 9.5134e-09 | au |
q | 1.95544447482663 | 1.0332e-07 | au |
i | 3.132380018738119 | 4.789e-06 | deg |
node | 212.8302420193524 | 8.0694e-05 | deg |
peri | 337.413019679188 | 8.4865e-05 | deg |
M | 290.0792810846089 | 3.0694e-05 | deg |
tp | 2459231.124482858796 (2021-Jan-16.62448286) | 0.00010211 | TDB |
period | 1187.413618124152 3.25 | 7.7214e-06 2.114e-08 | d yr |
n | .3031799488443794 | 1.9715e-09 | deg/d |
Q | 2.433557012666512 | 1.055e-08 | au |
|
| | Orbit Determination Parameters
Additional Information
|